Location: La Oliva
(42.2466°N, 2.9955°E)
Time: 11:03:36
(UTC+00:00)

OBJECT-B - Pass Details

Date: 22 April 2021
Orbit: 415 x 424 km, 97.0° (Epoch: 25 April)

Event Time Altitude Azimuth Distance (km) Brightness Sun altitude
Exits shadow 19:53:28 - 182° (S) 1,653 3.5 -13.6°
Reaches altitude 10° 19:53:51 10° 183° (S) 1,496 3.3 -13.7°
Maximum altitude 19:56:58 51° 260° (W) 540 1.6 -14.1°
Drops below altitude 10° 20:00:08 10° 338° (NNW) 1,515 4.4 -14.6°
Sets 20:02:11 0° 344° (NNW) 2,387 5.4 -15.0°
